Theta_e
305 305 306 307 307 307 307 306 307 306 306 307 307 307 308 310 311 309 309 311 311 309 308 308 308 307 307 309 310 309 313 312 313 312 314 315 315 315 315 315 315 317 317 315 315 324 323 325 324 325 329 328 326 326 327 327 328 328 327 327 327 326 326 328 330 329 325 323 321 322 322 323 324 322 323 324 325 326 326 326 326 326 326 326 327
305 305 306 306 306 306 306 307 308 306 306 306 307 307 307 308 309 309 309 310 310 310 310 308 305 309 308 310 308 309 311 311 311 311 313 315 314 313 314 313 314 316 318 317 316 314 316 317 318 320 322 323 324 325 326 327 326 326 326 323 328 327 325 329 330 327 321 319 315 317 320 321 322 323 321 323 325 325 326 326 326 326 325 326 327
302 304 305 306 306 306 306 307 307 307 307 306 306 306 307 308 308 309 310 310 309 311 308 307 305 306 307 306 311 308 307 310 310 314 314 311 310 311 312 311 313 314 315 318 316 316 317 318 318 319 320 322 320 320 322 322 324 325 324 323 323 326 326 329 328 327 322 321 320 319 314 315 318 319 320 321 322 325 325 325 326 326 326 327 327
302 303 305 306 306 306 306 306 307 306 306 305 304 306 308 310 307 309 310 310 310 312 311 305 308 306 307 310 307 307 309 314 309 309 309 309 310 310 311 310 312 313 313 315 314 314 315 315 316 316 316 318 316 316 318 319 321 322 324 325 325 321 322 324 328 327 325 322 316 317 316 314 312 316 316 320 320 321 323 324 326 326 327 327 328
303 303 304 305 306 306 306 307 306 306 306 305 305 306 309 309 309 309 310 309 310 314 309 309 311 310 310 310 310 310 311 308 309 308 309 314 310 309 309 310 311 312 313 314 317 313 313 314 314 314 315 314 315 315 315 315 317 317 319 321 322 322 321 323 325 328 327 327 322 317 315 313 313 315 318 318 319 320 320 321 323 324 325 326 327
304 304 305 306 307 306 306 306 306 306 306 306 306 307 308 308 308 308 309 309 310 309 308 310 312 310 309 307 306 304 305 306 306 308 308 308 308 308 308 309 310 310 310 313 316 315 312 313 313 314 314 314 314 314 314 315 315 315 316 317 318 321 323 321 320 324 327 327 327 326 323 316 316 319 318 314 321 320 321 321 320 321 322 323 325
303 304 304 305 306 306 306 306 306 306 306 306 306 306 308 309 309 309 310 310 310 309 308 311 309 310 310 309 307 306 306 305 303 304 308 305 306 308 307 308 309 310 310 310 312 313 311 312 313 314 314 314 316 313 313 313 314 315 316 315 315 317 318 316 316 318 323 322 324 326 326 326 325 320 316 317 315 320 323 323 323 322 321 321 321
304 304 304 306 306 307 306 307 307 307 306 306 306 306 307 309 309 309 310 312 310 309 308 309 309 309 308 306 307 305 305 307 305 304 305 309 308 307 307 307 308 309 309 309 311 313 311 310 311 312 313 314 314 312 312 312 312 314 314 314 315 315 315 314 314 316 315 315 320 321 322 324 327 326 325 319 317 315 319 324 325 324 323 323 322
305 304 304 305 306 307 308 307 307 306 307 307 307 305 307 309 310 309 309 311 309 308 309 307 310 309 308 307 307 307 306 307 308 310 308 310 306 306 307 306 306 307 308 308 309 314 315 309 310 311 311 312 314 311 310 311 310 310 311 311 312 313 314 314 313 312 314 313 315 315 318 318 321 325 324 324 318 315 315 317 319 323 325 325 325
304 305 305 305 307 308 308 306 306 306 306 308 306 306 307 309 309 310 309 310 310 308 309 307 307 310 306 306 307 306 308 305 306 307 306 305 306 305 306 306 305 306 305 307 308 310 310 310 310 310 310 312 313 308 308 309 309 309 310 310 310 310 311 312 312 312 313 313 314 314 313 314 315 318 318 316 319 321 315 315 318 318 317 322 325
303 304 305 306 305 305 306 306 305 305 306 307 307 306 307 308 309 309 310 310 310 308 308 307 306 307 307 306 307 307 306 306 306 305 305 304 305 305 305 305 305 305 304 305 307 308 311 312 309 310 312 314 310 308 308 308 308 308 308 308 308 308 308 309 310 311 311 311 311 312 312 312 312 312 312 314 314 313 314 315 316 318 318 318 323
301 303 303 303 304 304 305 305 305 305 305 306 307 307 307 308 309 309 309 309 309 308 308 307 306 307 306 307 307 308 307 307 307 306 306 307 305 305 304 304 305 306 305 306 306 308 310 309 311 309 309 307 307 308 308 308 308 308 308 308 307 307 308 309 307 308 308 308 309 311 311 312 312 311 313 314 313 313 313 312 314 316 317 318 321
299 300 302 303 303 303 304 305 304 304 305 306 307 307 307 308 308 308 309 309 309 308 308 306 306 307 306 306 307 308 308 308 307 307 306 307 305 305 304 306 304 306 306 307 306 306 309 307 307 308 308 309 307 307 307 307 307 307 306 306 306 307 307 307 307 306 307 307 307 308 309 309 310 312 313 312 313 314 314 311 313 316 313 315 318
298 299 301 302 303 303 304 304 305 306 306 306 307 307 308 308 309 309 309 309 309 307 307 306 306 307 306 307 307 309 307 308 307 307 307 307 307 306 306 306 306 307 306 307 307 306 308 310 309 307 308 308 308 306 306 306 305 306 305 305 306 306 306 306 306 307 306 306 307 306 307 308 309 310 311 311 310 311 310 309 309 312 314 313 316
295 298 300 302 303 303 305 305 304 305 305 306 306 308 308 308 309 309 308 309 309 308 307 306 306 306 306 307 307 308 308 307 307 307 307 307 306 307 306 305 306 306 307 307 307 307 307 307 307 307 307 308 308 308 307 306 306 307 307 307 307 305 306 306 305 305 305 305 305 306 308 307 307 308 309 309 311 311 310 310 310 307 309 312 312
295 298 301 301 303 304 305 305 306 305 305 305 305 306 307 308 309 309 309 309 309 309 308 307 307 307 307 306 307 308 310 309 307 307 306 307 307 307 307 306 306 306 305 307 306 307 307 306 308 305 305 306 306 305 305 305 305 305 304 303 304 308 304 304 304 303 304 304 305 305 305 305 307 307 308 309 310 310 310 311 311 310 307 305 310
294 295 298 301 302 304 305 305 305 305 304 305 306 306 307 307 308 309 309 309 309 309 309 308 307 306 306 307 307 307 308 308 308 307 306 306 306 307 307 307 306 305 305 306 306 305 307 307 306 305 305 304 304 305 304 304 304 304 303 302 303 305 306 304 304 304 304 304 304 304 304 305 306 307 307 308 308 308 309 309 311 309 308 306 305
295 297 297 299 302 303 304 305 306 306 306 306 307 308 308 309 309 310 310 309 309 309 309 308 307 307 307 307 307 308 308 309 308 308 307 306 305 306 305 306 305 306 306 307 306 305 306 310 305 305 304 303 304 304 304 303 303 303 302 303 303 303 305 304 303 304 303 304 306 304 304 304 305 305 306 307 307 306 307 307 308 309 311 306 306
293 294 296 298 298 300 302 304 306 306 307 307 308 309 309 309 309 310 311 311 311 310 310 309 308 308 309 308 308 307 308 308 308 308 307 306 306 306 306 307 305 305 308 307 304 305 306 304 304 304 303 303 302 303 303 302 302 301 303 303 302 301 301 302 301 304 304 305 303 303 302 303 304 304 305 305 305 305 306 307 308 308 308 308 307
292 293 295 297 300 301 301 302 303 304 305 307 309 309 309 310 310 310 310 310 311 310 310 309 309 308 309 309 308 308 308 308 308 307 306 306 307 306 306 305 305 307 306 306 305 305 306 304 303 303 302 301 302 301 301 300 300 300 300 300 301 300 300 301 301 301 302 303 302 302 302 302 303 303 303 304 304 305 306 306 307 306 306 307 308
292 293 294 295 297 300 303 302 303 305 306 307 309 310 310 310 310 311 311 311 311 312 311 310 309 308 308 308 308 308 308 308 308 307 307 307 307 307 307 307 306 306 305 305 305 305 304 304 302 304 302 301 300 300 300 299 300 298 299 299 299 300 300 299 303 301 301 301 302 301 301 302 302 302 302 303 303 304 305 305 306 305 304 305 305
291 292 293 294 295 297 298 301 304 304 304 305 306 308 308 310 312 312 312 312 312 311 312 311 310 309 308 308 309 309 309 308 308 307 307 307 307 307 307 306 306 306 305 305 305 304 304 302 302 302 300 300 299 299 298 299 299 298 298 300 299 299 299 299 299 299 300 300 301 300 300 301 301 301 302 301 303 303 303 303 303 303 302 303 305
291 291 292 293 294 295 297 297 298 300 302 304 304 307 309 310 311 311 312 312 313 313 312 312 312 311 310 310 309 309 309 308 308 307 307 307 307 306 306 306 306 305 305 305 304 304 303 302 302 300 299 298 299 298 298 298 298 298 298 297 299 298 299 299 298 299 299 300 299 300 300 300 301 301 301 302 302 302 303 302 302 303 303 303 304
291 292 293 293 294 296 296 296 297 298 299 300 303 304 305 307 309 309 310 311 312 312 312 312 312 311 311 310 309 310 308 308 308 308 307 307 307 306 306 306 306 304 304 304 303 303 302 301 301 300 298 298 298 298 298 298 298 298 298 298 297 298 298 298 298 299 299 299 300 299 300 301 301 301 301 301 301 302 302 302 302 302 304 304 305
291 292 292 294 294 295 295 296 296 297 298 299 300 302 304 307 307 308 309 309 311 310 311 311 311 311 310 310 309 309 308 308 308 308 307 307 306 306 306 306 304 304 304 303 303 302 301 301 301 299 298 298 298 297 297 297 297 297 298 298 297 297 298 298 299 299 301 301 300 300 300 300 300 300 300 300 301 301 301 302 301 301 301 302 303
289 290 292 292 292 293 295 295 296 297 297 298 298 299 301 302 304 306 308 309 309 309 310 311 310 310 309 309 310 309 308 308 308 307 307 306 306 306 306 305 305 304 303 303 302 301 302 300 299 298 298 298 297 297 297 297 297 298 297 297 298 298 299 298 298 299 298 299 300 299 300 300 300 300 300 301 301 301 301 301 301 300 301 301 301
290 290 290 292 293 293 293 295 296 296 297 297 298 298 299 300 301 302 304 307 310 309 310 310 310 310 309 309 309 309 308 307 307 308 308 307 306 306 306 305 305 304 303 302 301 301 301 300 298 298 298 298 297 297 296 296 296 296 296 297 296 296 297 297 298 298 298 298 299 299 299 299 299 299 299 299 299 300 301 300 301 302 301 301 300
290 290 291 291 291 292 293 294 295 296 297 298 298 298 298 299 299 300 302 304 307 309 310 310 310 309 309 310 309 309 308 308 308 307 306 306 306 305 305 305 304 303 303 302 301 301 299 299 298 298 297 298 296 296 295 295 296 296 297 296 296 297 297 296 297 297 297 297 297 298 298 298 298 299 299 299 299 299 300 299 300 300 300 300 299
290 290 290 290 291 291 292 292 293 294 295 296 297 298 298 299 299 299 300 301 303 306 308 309 309 309 309 310 309 309 309 308 308 306 305 303 303 303 303 304 303 303 303 302 301 299 298 297 296 296 297 297 297 296 296 296 296 295 295 295 295 295 295 295 295 295 296 296 296 297 297 297 299 300 300 299 299 299 299 298 298 299 298 298 297
289 289 290 290 291 291 291 292 291 292 293 295 296 297 297 298 298 299 299 299 301 303 305 307 308 309 309 309 309 308 308 308 306 304 303 302 303 304 304 304 303 303 302 300 299 298 298 297 296 295 296 296 296 296 300 297 298 298 295 294 295 295 294 294 294 294 294 295 295 296 297 298 299 299 298 296 295 296 297 298 298 298 297 297 296
288 288 289 290 290 291 291 291 292 292 293 294 294 295 295 296 297 298 299 300 300 301 303 304 307 308 308 307 307 308 307 306 304 304 303 303 304 305 304 303 301 301 300 299 298 297 296 296 296 296 295 295 295 296 296 293 293 294 295 294 294 294 293 293 293 293 293 294 294 295 295 296 297 297 298 295 294 294 294 294 295 296 297 297 296
288 288 289 290 291 291 291 292 292 292 292 292 294 295 295 297 297 297 298 299 299 300 300 302 305 306 307 307 306 305 304 304 303 304 304 304 304 304 303 302 301 299 299 299 298 297 295 295 295 294 294 295 294 297 293 292 292 292 294 296 293 293 293 292 292 292 292 293 293 293 294 295 295 296 296 296 296 294 293 293 293 293 293 293 294
287 289 290 289 290 290 291 292 292 293 294 294 293 292 295 296 297 298 298 298 298 299 299 300 302 304 305 306 305 304 303 303 303 304 305 305 304 304 302 301 300 300 298 297 296 296 295 295 294 293 293 295 294 295 292 292 292 292 292 293 292 292 292 292 292 292 292 292 292 292 293 293 294 296 297 296 296 296 295 294 294 294 293 293 291
288 288 288 289 289 290 291 291 292 294 295 295 295 296 297 297 297 297 296 297 297 298 299 300 301 302 303 305 305 304 303 302 303 304 304 305 304 303 302 302 300 298 297 296 295 295 294 294 294 294 294 294 293 294 292 292 292 291 290 291 292 291 291 291 291 291 291 292 292 292 292 292 293 294 294 294 294 294 294 294 294 294 295 295 293
288 289 290 289 289 290 290 291 293 295 296 295 295 295 295 295 295 295 295 296 297 298 298 299 300 301 302 303 304 303 303 302 302 303 303 303 303 302 301 300 299 297 296 295 294 294 294 294 294 293 292 292 292 293 291 291 291 291 290 291 291 291 291 291 291 291 291 291 291 291 292 291 292 292 293 293 293 293 293 293 293 293 293 294 294
289 289 289 290 291 291 291 292 295 295 295 295 295 296 296 296 295 296 296 297 297 297 298 298 299 301 301 303 303 303 302 301 301 302 302 302 302 301 299 298 297 296 296 295 293 294 293 292 292 291 291 291 290 290 290 290 290 290 290 292 290 290 289 290 290 290 290 291 291 291 291 291 291 291 292 291 292 293 292 291 291 291 292 292 293
289 290 291 291 291 291 292 293 293 294 295 295 296 296 296 296 296 297 297 297 297 297 298 298 300 300 301 302 303 303 301 301 301 301 301 301 300 298 296 297 295 294 293 293 292 293 293 292 291 290 290 290 288 290 290 290 290 290 290 290 289 289 289 288 288 289 290 290 290 291 291 290 290 290 291 289 290 291 291 290 290 290 291 291 291
289 290 290 290 291 291 292 293 293 293 294 295 296 296 296 295 296 296 296 297 297 298 298 299 300 301 302 302 302 302 301 300 300 300 300 300 298 296 296 296 295 293 293 293 293 292 291 291 291 290 290 289 289 289 291 290 290 290 290 289 289 288 287 288 288 289 289 289 290 292 293 291 291 291 290 289 289 291 290 290 290 290 289 289 290
290 290 291 291 291 292 293 294 293 293 294 295 295 295 295 295 296 296 297 297 298 298 299 299 300 301 302 302 302 302 301 301 300 299 298 296 295 295 295 295 295 294 293 292 293 292 290 290 290 289 294 290 288 290 291 289 290 289 291 290 289 288 287 287 287 287 288 288 289 290 291 291 291 290 289 289 288 289 289 289 289 288 288 288 289
290 290 291 291 292 291 291 291 292 293 294 295 295 295 295 296 296 296 296 297 298 299 299 300 300 301 301 302 301 301 301 300 299 296 296 295 294 293 293 293 293 293 292 291 292 291 291 290 291 292 293 290 288 287 290 289 290 290 290 290 289 287 287 287 287 287 287 288 289 289 290 289 288 288 288 288 288 288 288 288 288 287 286 286 290
290 291 293 291 291 291 291 292 293 294 295 295 295 295 295 295 296 296 296 298 299 300 300 300 300 300 300 300 300 300 298 297 297 296 296 295 295 294 293 293 291 290 290 290 290 289 289 288 287 287 287 287 288 287 289 289 289 289 289 289 288 287 287 287 287 287 287 287 287 288 289 289 288 288 288 288 288 288 288 289 288 287 288 288 289
291 292 292 291 290 290 291 292 293 294 295 295 295 295 295 296 296 296 298 299 300 299 299 299 299 299 299 299 298 298 298 296 296 296 295 293 292 293 292 291 290 290 289 289 288 289 288 287 285 284 286 285 288 291 288 289 289 289 289 289 288 288 289 288 287 287 287 287 287 288 288 289 288 288 288 288 288 288 288 289 289 288 288 288 288
290 290 290 291 290 291 291 292 294 294 295 296 296 295 296 297 297 298 299 300 299 299 299 298 298 298 299 298 298 298 297 297 296 296 293 291 292 292 290 289 289 288 288 287 287 287 286 286 285 284 283 283 284 286 289 289 288 288 288 288 288 288 288 289 287 286 286 287 288 288 288 289 288 288 288 288 288 288 288 288 288 288 288 288 288
290 290 290 291 291 291 292 293 294 295 295 296 297 296 297 297 298 300 299 297 297 297 297 298 298 299 299 298 298 297 297 296 295 294 292 291 290 289 289 288 288 288 287 286 284 284 285 286 286 285 285 284 284 284 285 287 287 287 288 288 288 287 288 288 288 287 287 287 287 287 288 287 287 287 287 287 287 287 287 287 287 287 287 287 288
290 290 291 291 291 291 292 293 294 295 296 297 297 297 297 296 297 295 295 295 296 296 297 298 299 299 298 297 297 296 295 295 294 293 291 290 288 289 288 287 288 287 286 286 284 285 286 285 285 285 285 284 284 284 284 286 287 287 287 287 287 287 287 287 287 288 288 288 287 287 287 287 287 287 287 287 287 287 287 287 287 287 288 288 287
289 289 290 291 291 291 292 292 294 295 296 297 298 297 295 295 295 295 295 295 296 297 298 298 298 297 296 296 295 294 294 293 293 293 291 290 290 290 289 287 287 286 286 286 285 285 284 284 284 284 284 284 284 283 284 284 287 287 287 286 287 287 288 288 288 288 287 287 287 287 287 287 287 287 287 287 287 287 287 287 287 288 288 287 287
289 291 291 291 291 291 292 293 293 295 297 298 297 295 295 296 296 296 296 297 298 298 297 297 296 295 295 294 293 293 292 292 291 291 291 291 290 289 288 287 286 286 285 285 285 285 285 284 284 284 284 284 284 284 284 285 285 285 285 286 287 287 288 288 288 287 287 287 287 287 287 287 287 287 287 287 287 287 287 287 287 288 288 288 287
290 290 291 291 291 291 292 293 294 296 297 297 297 297 297 297 297 297 298 298 297 297 296 295 294 294 293 293 292 289 291 291 291 290 289 288 287 288 288 287 286 286 286 285 282 284 285 285 284 284 283 283 284 284 285 285 286 286 286 287 287 287 287 287 286 287 287 287 287 286 286 287 287 286 286 287 287 287 287 286 287 287 287 287 288
290 290 291 291 291 292 292 293 294 297 298 297 297 297 297 297 297 297 297 296 295 294 294 294 294 294 292 292 292 292 291 290 289 288 288 288 288 287 287 286 286 287 286 285 284 284 285 284 285 284 283 282 282 284 286 287 287 287 287 287 287 287 287 287 287 287 286 286 286 285 285 285 285 285 285 285 286 286 286 287 287 287 287 287 287
290 291 291 291 292 292 293 293 295 297 298 296 296 296 297 297 297 296 296 295 294 294 294 293 293 292 291 291 290 290 289 289 288 288 287 286 285 287 288 288 286 287 287 287 287 285 285 284 284 284 285 284 284 286 287 287 287 287 287 287 287 287 287 287 287 286 286 284 284 284 284 284 284 284 284 284 284 285 285 285 286 286 287 287 287
290 290 290 291 291 292 293 294 296 298 297 296 296 297 297 297 296 296 296 295 294 293 293 293 292 292 291 290 289 289 288 288 288 288 288 287 287 287 287 287 288 288 287 287 287 287 287 286 287 285 285 286 286 287 287 287 287 287 287 287 287 287 286 286 286 285 284 284 283 283 283 284 284 284 284 284 284 284 284 285 285 286 286 286 286
Wind_Speed
2 3 5 6 5 4 3 4 4 4 4 5 6 6 6 8 8 8 6 7 8 6 4 5 4 3 3 3 5 1 3 3 3 2 4 4 4 4 4 4 3 3 3 3 3 3 4 3 2 3 3 3 4 4 3 3 3 3 3 2 3 3 2 1 3 4 2 3 5 6 6 3 2 4 5 5 6 7 5 6 6 5 5 5 6
2 3 4 4 3 4 4 4 5 7 5 4 7 8 6 5 7 8 6 6 7 8 7 4 3 5 5 4 3 3 4 5 3 2 3 4 4 3 3 3 3 3 2 3 4 4 4 3 3 4 4 4 4 3 3 1 1 2 2 3 3 2 2 2 2 3 2 2 1 5 4 5 2 3 4 5 5 5 5 6 5 6 6 6 4
5 4 4 6 5 5 4 5 5 5 8 8 6 6 6 6 5 7 7 8 6 6 6 5 2 1 4 3 5 3 1 0 2 2 2 5 4 3 3 3 3 3 3 3 5 5 5 5 4 4 6 5 6 6 5 4 4 4 4 3 2 3 3 2 2 1 2 2 2 1 3 2 2 1 1 4 5 5 4 5 5 6 7 5 4
10 11 11 6 6 5 5 6 7 5 5 5 5 7 6 6 5 6 7 6 7 5 4 4 4 3 3 5 3 4 3 2 3 3 3 4 4 3 3 3 3 3 3 4 5 5 5 6 5 6 6 5 6 6 5 6 6 6 5 4 2 4 2 1 1 1 1 4 2 2 1 1 3 2 4 5 2 5 4 6 5 6 5 5 3
13 9 7 9 9 12 11 8 6 7 7 8 8 8 7 9 8 7 8 7 6 4 5 6 6 5 4 4 4 6 5 4 3 2 2 2 3 4 2 2 3 3 3 4 5 5 5 5 6 6 6 5 5 6 6 5 6 6 6 6 4 2 3 2 2 2 2 1 3 2 0 1 2 1 4 4 3 2 2 4 3 4 3 3 4
12 15 16 17 16 7 5 8 9 8 9 7 7 8 8 8 6 5 5 5 6 4 6 7 7 7 6 6 4 3 5 5 5 5 2 2 3 0 2 3 3 3 4 4 4 5 6 5 5 6 6 6 6 6 5 5 7 7 6 5 6 5 3 4 4 3 4 3 1 2 1 1 1 1 2 3 4 1 2 0 2 4 4 4 4
10 8 7 7 7 9 10 11 12 11 8 6 7 7 7 8 8 7 7 6 5 5 5 6 6 7 8 8 7 8 8 4 2 2 5 2 2 3 2 2 2 3 3 4 5 4 5 5 6 6 6 6 4 6 7 6 5 5 5 7 5 5 5 6 5 4 2 6 5 4 2 0 1 1 1 2 3 4 3 4 3 1 2 3 4
13 15 14 13 13 14 17 17 13 11 7 7 8 8 8 9 9 9 7 6 6 6 6 6 8 6 5 5 5 6 7 7 5 4 2 3 3 3 2 3 3 2 3 4 4 4 5 5 6 6 7 6 6 6 6 4 5 5 5 6 6 6 6 6 5 5 4 3 5 5 4 3 1 1 2 1 3 4 5 4 1 1 2 2 4
16 14 14 14 14 15 14 13 9 8 10 12 11 8 7 8 9 7 7 6 6 6 7 5 6 8 7 6 4 4 3 3 4 3 4 3 4 2 3 2 3 2 2 3 3 4 4 5 6 6 7 6 5 6 5 5 6 6 6 6 6 6 5 5 5 4 5 5 4 5 4 4 2 2 1 2 2 2 3 2 6 5 5 1 1
13 16 15 13 14 15 10 4 6 7 6 5 4 6 7 7 8 8 8 7 7 7 7 6 5 6 6 5 6 5 2 2 4 5 4 3 4 3 3 3 2 3 3 4 3 4 5 5 6 6 6 6 5 5 5 5 5 6 5 5 5 6 5 5 5 4 4 5 5 3 5 4 4 3 4 5 3 3 4 5 5 7 8 4 5
11 13 12 11 6 4 7 9 7 6 7 7 8 8 7 8 8 9 10 7 6 7 7 8 6 6 7 7 6 6 4 4 5 4 4 3 4 4 4 4 2 3 3 4 3 4 4 4 6 5 4 5 5 6 5 5 5 5 5 6 6 6 5 5 5 5 4 5 6 5 5 4 4 3 4 4 3 2 4 4 5 5 6 9 5
7 6 4 2 4 6 7 8 10 9 9 10 9 8 9 8 8 9 8 7 6 7 7 7 7 7 6 7 8 7 7 6 7 7 7 7 5 5 3 3 2 2 2 4 3 3 5 5 5 5 5 5 5 5 5 5 5 5 5 5 5 5 5 5 5 5 5 5 5 4 4 3 4 4 3 4 4 4 4 5 4 5 5 4 6
3 3 5 6 6 7 9 8 9 11 13 14 13 11 9 8 9 11 10 8 7 7 8 8 7 8 8 7 6 6 7 7 7 7 6 7 6 5 5 5 3 3 2 4 3 4 4 6 5 6 5 4 4 4 4 5 5 5 5 5 5 5 5 5 5 5 5 5 4 3 3 4 3 3 3 3 3 4 4 4 3 4 5 6 5
1 4 3 4 6 6 5 7 9 10 11 12 11 11 11 9 10 12 12 9 7 7 8 8 9 8 8 7 7 6 7 7 6 7 7 6 7 7 7 7 7 6 5 5 5 4 3 4 5 6 6 5 5 5 4 4 5 5 4 5 4 3 4 5 5 4 4 4 3 4 4 3 3 3 3 3 4 4 3 4 5 4 5 6 4
1 2 4 5 5 5 6 7 5 4 4 6 8 10 10 10 11 12 10 9 9 10 8 9 9 8 7 7 7 6 7 7 7 6 6 6 6 6 6 5 6 6 7 5 5 5 5 5 5 6 5 5 5 4 4 5 5 4 4 5 4 3 4 4 4 4 4 4 4 3 3 3 3 3 3 4 4 4 5 5 5 7 5 4 6
4 2 1 1 4 7 7 7 7 7 6 5 4 4 7 9 9 11 13 12 10 9 9 9 9 8 7 8 8 7 6 6 5 4 5 6 7 7 7 7 7 6 4 5 5 6 6 6 5 6 5 5 5 5 5 5 4 5 4 5 4 1 4 4 3 3 3 2 2 2 3 3 3 3 3 3 3 3 4 4 5 5 7 9 4
6 6 2 1 2 1 4 5 5 5 4 6 6 6 5 3 4 6 6 5 8 9 10 8 8 7 8 7 7 6 7 7 8 8 7 6 5 6 6 7 5 5 6 4 6 5 6 7 6 6 5 5 4 4 5 5 5 5 4 4 5 3 4 4 3 2 1 0 2 1 1 1 2 2 2 2 3 3 3 4 3 5 5 6 7
7 8 6 3 1 4 4 4 5 5 5 6 7 6 6 6 7 9 8 9 8 6 6 7 8 8 8 8 8 9 9 8 7 7 6 6 5 5 3 4 6 6 5 5 5 6 6 6 7 5 5 4 4 4 5 4 4 4 3 3 4 4 3 3 3 3 1 2 1 1 0 2 2 2 3 3 3 3 4 4 4 4 4 6 5
9 9 10 8 5 1 3 4 4 5 5 5 5 6 6 5 5 6 8 8 6 7 8 6 6 6 7 9 9 9 8 7 7 6 6 7 8 7 7 7 5 5 5 5 5 6 6 5 6 6 5 5 5 5 5 4 4 4 2 3 2 2 2 1 1 1 1 1 1 2 2 3 3 3 3 3 3 3 3 3 3 3 4 5 6
6 7 7 9 9 8 2 1 3 4 6 6 7 6 7 6 7 7 5 5 6 7 6 8 9 8 7 6 6 8 8 9 8 7 7 8 8 8 7 5 7 6 6 7 7 7 6 6 5 6 5 5 5 5 5 5 5 4 3 3 3 3 2 1 3 3 3 3 3 3 3 3 3 2 3 3 3 3 3 2 2 3 4 4 6
5 5 7 9 9 9 7 4 1 0 1 4 6 8 8 7 8 8 9 9 8 8 8 9 4 5 5 8 9 7 8 8 7 8 9 9 8 8 8 7 6 7 7 7 7 7 7 6 6 4 4 4 3 5 4 5 4 4 4 3 4 4 3 2 0 3 3 4 4 5 5 5 4 3 3 3 3 4 3 3 2 2 3 3 5
4 4 5 5 6 7 8 8 7 4 2 0 1 1 4 7 8 8 9 10 11 10 10 8 6 7 7 7 7 7 8 7 9 9 9 9 8 8 6 5 7 6 7 8 8 6 6 6 5 4 4 4 4 5 4 4 5 4 4 3 4 4 3 1 2 2 3 3 3 4 6 6 5 5 5 4 4 4 4 3 3 2 3 4 4
4 4 4 4 4 4 5 6 7 7 6 4 1 1 2 3 4 5 8 9 9 9 7 8 10 10 12 12 10 8 8 8 9 9 10 9 7 6 6 8 7 6 5 6 7 7 7 6 5 5 4 4 3 4 4 5 5 4 3 2 3 2 2 1 1 2 3 3 3 3 5 5 4 5 5 5 4 4 4 4 4 3 4 4 5
6 5 6 5 6 7 9 8 8 7 7 7 6 4 2 1 2 3 5 6 5 5 6 8 9 10 8 5 8 9 9 9 11 11 11 9 8 7 7 7 7 6 7 4 6 7 7 6 5 4 4 4 4 4 4 4 5 4 3 2 1 1 1 1 2 3 3 3 4 4 4 5 5 5 5 5 5 5 4 4 5 5 5 5 4
8 8 8 10 11 11 9 8 9 9 9 8 9 8 8 6 3 2 3 3 4 4 5 7 9 10 8 10 11 8 9 10 12 10 10 8 8 8 8 8 8 8 6 7 5 5 6 6 6 5 4 4 5 5 5 4 4 4 3 2 2 1 1 1 3 3 3 4 4 4 5 4 5 6 6 5 5 6 5 5 7 7 6 6 5
5 6 8 8 5 5 8 8 8 8 8 8 8 7 7 7 7 4 4 4 3 3 5 6 6 7 8 10 13 10 11 12 8 4 6 7 7 8 9 9 10 10 8 7 8 6 6 6 6 5 5 5 4 5 4 3 3 3 3 1 1 0 2 3 4 4 4 5 5 5 5 5 4 5 5 5 5 6 4 5 7 8 8 8 8
4 3 2 2 6 7 5 5 6 6 6 6 7 9 8 8 9 8 7 5 4 3 4 6 7 8 8 9 10 10 8 6 8 12 9 8 9 10 10 10 10 11 10 9 7 7 4 7 6 6 6 6 5 4 3 3 3 2 1 1 2 3 4 4 4 5 5 5 6 6 6 6 6 6 6 6 6 6 5 7 7 7 8 8 8
4 4 5 5 4 5 7 8 8 7 6 7 6 5 6 6 7 8 8 8 8 4 3 4 5 7 8 9 10 10 10 10 9 7 6 5 2 2 2 4 8 10 11 11 10 8 6 6 7 6 6 5 6 5 4 3 2 1 1 2 2 3 4 4 5 5 5 6 6 7 7 7 7 7 7 7 6 6 5 6 5 6 6 7 7
5 5 4 4 4 3 3 4 4 5 7 7 7 6 5 6 6 6 6 8 7 7 6 4 5 6 7 8 7 7 8 9 8 5 5 5 6 7 5 2 2 6 8 10 9 9 8 6 5 6 6 6 6 5 4 4 3 2 2 1 3 3 4 5 5 5 5 6 6 6 7 7 7 10 12 11 10 8 6 6 5 5 5 7 7
4 4 4 4 4 4 3 3 3 4 5 5 5 6 7 6 6 6 7 6 6 7 7 6 5 6 6 7 7 7 7 8 7 6 6 7 8 8 9 11 9 7 7 8 9 8 8 8 7 6 6 6 5 4 5 7 5 2 2 2 2 3 4 4 5 6 6 6 7 7 6 11 13 13 13 13 13 13 13 9 7 5 6 6 6
3 4 4 4 4 4 4 5 5 5 5 5 5 5 5 5 6 6 7 7 5 6 6 6 7 6 6 5 5 6 6 6 5 7 8 11 13 13 13 11 8 5 6 8 10 10 8 7 8 8 7 5 5 4 7 6 6 6 4 4 3 4 4 4 5 6 7 7 7 7 7 8 10 10 11 12 13 14 14 14 15 14 10 8 6
3 4 4 5 6 6 6 5 5 5 4 4 5 5 5 7 6 6 7 6 6 6 7 7 7 7 7 6 6 4 4 5 8 10 9 9 10 10 10 10 11 11 8 8 10 10 9 8 7 7 7 6 5 6 8 7 6 6 5 3 3 3 4 5 5 7 7 7 7 7 6 5 6 8 8 9 11 13 14 15 15 15 15 15 14
4 4 4 4 5 5 5 6 5 5 4 5 4 4 5 6 7 7 7 6 7 6 6 7 7 6 7 7 6 4 5 6 8 9 9 9 10 11 11 12 13 11 9 10 9 10 10 9 9 9 7 6 5 7 8 7 6 5 3 2 3 4 5 6 6 7 8 7 7 6 6 5 6 11 11 9 9 9 11 14 15 15 15 15 15
4 4 4 5 5 5 5 5 5 5 4 5 4 5 7 6 6 5 5 7 6 7 6 7 7 7 6 7 6 5 6 7 8 8 9 11 11 12 12 11 9 10 11 9 8 9 9 9 8 8 7 6 5 6 8 6 3 2 4 3 3 5 5 6 7 8 7 7 7 7 7 7 6 7 7 8 8 9 8 9 9 9 9 11 14
5 6 6 6 6 6 6 6 6 6 6 6 6 5 6 5 5 6 5 6 6 7 7 7 8 8 7 6 7 7 7 6 8 9 9 10 11 10 11 10 11 12 11 11 10 9 9 9 8 7 7 5 4 2 2 1 1 3 6 4 5 5 5 6 7 8 8 8 8 7 8 8 8 7 6 8 9 9 9 9 10 10 9 9 9
5 5 6 6 6 6 7 8 6 5 6 5 8 7 7 7 4 5 6 6 6 6 6 6 7 8 8 8 7 8 7 7 8 9 9 10 10 11 12 9 8 8 8 8 6 8 8 8 7 6 6 5 2 3 2 1 2 5 6 4 5 6 6 7 7 7 7 6 6 7 7 10 11 10 10 13 13 11 12 12 13 12 10 10 10
5 5 7 7 6 6 7 5 6 7 8 9 9 8 8 8 7 6 6 6 5 6 6 6 7 8 8 8 8 8 7 8 8 8 9 9 9 8 6 6 9 9 9 9 9 8 8 8 7 6 6 4 2 2 2 2 3 5 4 4 5 6 6 7 7 7 7 7 7 7 8 11 11 11 12 13 13 14 13 13 13 13 11 10 10
6 6 6 7 7 6 6 5 7 8 9 10 9 8 8 9 9 8 8 8 5 7 6 7 8 8 8 8 8 8 8 8 8 10 9 8 6 6 8 7 10 10 9 9 8 8 7 7 8 7 6 5 3 2 3 3 3 5 4 5 5 6 7 7 7 7 6 6 8 15 15 12 10 10 11 11 11 12 13 13 13 15 17 16 14
6 6 8 8 7 7 6 6 7 9 11 10 9 8 9 9 9 8 8 9 9 8 7 8 8 8 8 8 8 8 9 9 9 7 6 6 3 2 4 6 9 10 9 8 7 8 6 5 6 6 6 6 4 3 4 4 4 5 4 3 4 5 6 8 7 9 8 9 8 10 15 14 14 15 16 15 17 15 15 15 16 17 18 18 14
6 6 7 8 6 5 5 7 9 11 10 9 8 8 9 9 10 8 9 10 11 10 9 8 8 8 8 8 7 8 7 8 8 8 9 9 9 9 7 7 5 6 7 6 7 6 7 6 5 6 5 5 5 4 4 6 5 6 6 4 4 6 7 9 8 9 9 8 9 9 10 13 15 16 16 17 17 17 15 16 15 15 17 18 12
7 7 6 5 6 5 8 9 10 10 9 9 8 8 10 10 10 9 11 12 11 10 9 9 8 7 7 7 7 7 7 7 8 8 7 7 7 11 10 8 6 6 5 4 4 5 6 6 5 5 5 5 5 4 5 5 6 7 7 5 4 6 7 6 8 9 8 8 8 8 8 11 15 16 16 17 17 18 18 15 16 16 16 16 16
6 8 6 6 6 6 8 9 9 10 10 9 9 10 10 11 11 12 13 12 12 10 9 8 8 7 6 6 6 6 8 9 9 11 12 10 7 8 8 8 7 7 7 4 1 3 5 5 4 4 4 5 5 5 4 5 7 8 8 8 5 6 7 8 11 8 8 9 10 11 11 13 15 17 17 17 19 19 20 15 16 19 21 20 18
8 8 6 5 7 8 9 9 9 8 8 9 9 11 12 11 13 14 12 12 11 9 9 8 7 6 7 8 8 11 10 9 10 12 12 10 9 10 8 7 7 6 6 6 4 2 4 4 3 3 3 4 4 3 5 5 7 9 9 9 10 9 11 9 10 11 10 13 12 13 13 17 16 17 19 19 20 21 19 17 20 20 21 21 20
8 7 8 6 8 8 9 9 9 8 8 9 9 11 11 12 14 13 9 8 9 10 9 9 7 8 8 8 10 10 10 10 11 10 11 13 10 9 7 7 7 7 6 6 3 3 3 3 2 4 4 4 3 3 5 7 7 9 9 10 11 11 12 11 10 9 11 13 13 13 14 19 21 22 23 22 21 21 17 22 23 23 23 21 15
10 11 9 6 8 10 9 10 9 9 10 9 9 11 12 14 12 6 8 9 10 9 8 8 9 9 9 9 10 11 12 11 10 12 11 10 8 9 8 5 7 7 7 6 4 3 4 3 2 3 5 5 4 3 5 7 9 9 10 10 10 12 13 14 11 11 13 13 15 21 22 22 22 22 23 23 21 21 22 23 24 24 24 15 14
8 9 9 8 7 7 9 11 12 9 9 8 9 8 11 10 7 7 8 9 8 7 8 8 9 10 11 12 12 10 10 10 10 9 10 9 10 8 8 5 5 5 5 6 6 5 3 3 3 4 5 5 5 5 6 6 5 5 6 9 11 13 15 16 15 15 18 20 20 20 21 21 19 18 15 13 12 13 17 19 21 21 14 13 13
11 12 8 7 6 8 10 10 12 10 8 8 6 4 5 5 6 6 7 7 7 7 8 9 11 11 11 12 12 10 8 8 8 7 6 7 7 7 7 6 5 6 5 5 5 4 3 2 3 4 5 5 6 6 6 7 7 6 6 7 9 11 13 13 12 12 12 12 13 15 13 16 17 21 21 20 20 19 15 14 11 11 11 12 12
10 10 8 7 8 9 11 10 10 9 7 4 2 3 3 4 4 5 0 5 6 8 10 10 11 9 9 10 10 11 11 8 7 8 7 6 6 6 7 6 6 5 5 4 3 3 2 3 3 4 4 5 6 6 6 7 7 7 8 8 9 10 9 7 10 10 11 13 14 14 14 11 11 10 10 9 10 9 10 10 10 10 10 11 13
11 9 7 9 9 9 10 10 9 8 4 0 1 3 6 7 6 5 4 11 11 12 13 12 9 8 9 8 9 9 8 8 7 6 5 5 7 6 6 4 3 5 6 6 4 3 4 4 5 5 4 3 3 6 6 6 9 10 11 10 9 9 9 8 10 16 14 11 9 9 9 9 9 9 10 9 9 9 9 9 11 11 10 10 10
10 8 9 10 10 10 10 10 8 5 2 3 4 6 6 6 6 7 8 12 12 12 11 9 8 8 8 8 7 7 7 7 7 7 7 5 6 4 6 7 4 5 5 7 8 5 5 6 5 5 5 2 4 6 10 13 14 13 14 14 15 15 15 13 16 19 13 11 10 11 10 10 10 9 10 10 9 9 9 9 9 10 10 9 10
9 8 10 10 10 9 9 9 8 2 5 5 8 6 4 6 8 8 9 10 10 9 9 9 8 6 7 8 7 7 6 6 7 7 7 7 6 4 6 5 4 6 6 5 5 4 5 5 4 1 1 3 6 9 11 11 12 13 14 15 15 16 16 17 17 13 10 10 10 10 10 10 9 9 10 10 10 10 10 10 10 9 9 10 10
Wind_Direction
214 174 179 199 190 162 153 147 157 149 161 163 149 154 159 155 141 137 142 137 129 124 121 131 111 72 44 70 111 85 104 82 65 46 61 48 49 55 71 74 75 59 49 58 48 64 71 56 28 25 70 73 64 73 58 91 170 149 131 132 157 209 237 158 148 142 195 300 321 320 316 279 214 182 216 215 214 218 210 208 215 201 211 209 213
172 174 193 200 189 169 155 161 162 161 193 176 167 164 162 157 148 144 142 144 145 149 159 147 156 166 157 177 143 129 106 105 100 51 68 68 63 55 60 77 74 65 65 76 66 73 70 61 43 37 49 58 72 70 86 70 14 356 54 65 56 54 62 22 47 149 147 147 300 318 328 313 262 192 218 234 228 218 210 216 208 214 216 212 196
204 206 192 204 194 188 177 186 197 198 175 178 175 149 152 162 159 151 155 151 157 161 153 151 139 152 142 182 146 116 55 187 125 67 70 83 64 55 59 63 74 63 53 68 76 67 81 76 60 54 46 61 75 59 48 48 38 35 45 82 94 87 97 2 39 70 134 119 123 0 303 350 321 329 243 246 227 220 201 219 216 220 225 213 193
207 200 200 191 192 194 192 195 197 189 177 179 160 159 161 167 171 163 161 155 156 180 155 107 105 104 71 120 81 96 137 103 66 51 59 63 49 44 44 46 60 58 50 75 78 72 79 85 83 68 59 59 85 77 52 38 37 45 48 56 62 92 100 69 346 28 124 150 168 182 257 61 339 356 332 299 278 242 211 222 216 223 225 217 188
205 203 189 183 193 202 196 191 181 191 188 185 171 173 171 177 181 173 165 162 163 169 134 125 102 77 85 64 82 78 61 67 84 46 32 69 75 65 25 30 58 58 41 56 76 78 69 73 75 72 66 54 69 74 61 46 42 47 49 61 47 90 107 121 81 55 49 22 117 116 291 273 219 327 333 285 359 347 250 251 254 267 253 236 230
210 202 194 193 197 183 180 190 194 196 196 189 180 180 170 168 169 178 164 150 161 164 148 140 140 138 138 132 134 116 134 143 160 169 179 138 154 179 48 32 58 60 44 57 71 76 68 65 68 72 71 61 63 73 69 54 41 44 34 60 53 18 70 77 61 14 37 50 47 65 145 207 258 272 33 297 341 278 300 263 204 213 217 215 222
219 223 213 197 186 180 194 196 199 197 192 173 182 186 175 165 171 176 173 164 160 160 164 145 142 157 169 171 169 168 167 213 183 177 158 186 127 117 102 33 41 77 53 62 73 81 86 77 77 76 75 71 67 69 63 60 55 47 34 49 40 37 50 70 38 5 22 31 13 32 30 74 239 276 232 260 309 311 351 347 348 237 235 216 224
210 211 205 197 189 189 194 201 193 193 168 173 183 186 175 171 171 178 179 169 165 159 172 170 159 172 173 177 175 166 172 185 176 169 139 126 127 139 108 66 42 55 83 65 78 87 91 83 87 83 80 79 75 70 75 70 72 57 54 56 46 44 51 73 65 32 55 12 349 21 11 350 326 291 277 262 286 285 304 294 211 90 5 255 228
210 209 206 196 191 200 202 198 187 159 172 183 187 176 173 180 176 170 179 170 168 168 169 189 168 171 174 169 183 211 189 162 130 120 137 132 129 116 108 66 52 43 65 88 74 92 87 93 86 86 85 83 87 87 80 75 75 76 67 60 61 50 48 56 65 44 42 34 11 18 9 16 315 263 314 338 309 314 306 312 321 326 319 249 178
215 214 207 201 200 203 193 144 149 172 163 165 170 173 184 180 177 174 184 183 173 173 173 181 174 156 161 177 178 196 160 99 125 130 137 138 151 157 128 103 87 86 48 69 85 94 102 97 95 96 99 95 87 91 85 76 73 74 74 81 79 75 49 60 73 62 51 47 50 33 36 1 11 22 36 7 319 267 286 309 306 318 319 307 326
213 214 209 207 199 153 144 169 158 147 163 167 177 189 190 187 181 181 190 182 171 176 173 183 176 163 175 178 181 178 183 158 138 141 135 132 161 185 169 160 129 125 116 93 101 117 111 110 109 104 98 100 102 96 90 92 82 81 78 76 73 78 69 69 63 51 52 52 46 43 48 39 30 23 8 4 354 334 342 326 329 324 313 308 319
221 211 215 134 150 160 154 159 165 163 161 176 188 188 193 189 184 184 192 189 179 175 176 182 178 179 179 178 181 185 174 176 177 181 182 178 179 181 183 133 145 124 107 123 106 116 122 116 118 111 105 98 92 102 108 103 98 85 72 76 78 77 80 78 74 65 61 58 48 33 40 27 36 33 1 349 347 331 328 314 307 328 302 273 307
203 192 160 169 169 172 182 168 158 173 182 184 187 188 190 190 186 186 196 192 188 176 182 182 181 187 183 184 192 178 186 185 186 187 184 179 177 164 161 180 173 156 195 151 169 147 130 124 124 118 112 109 114 100 104 105 99 91 85 79 81 84 88 89 76 71 74 66 54 43 42 30 23 357 348 338 333 326 309 309 303 325 291 297 298
163 152 185 181 177 169 179 191 192 186 185 186 184 185 190 191 189 193 197 189 184 180 187 183 193 193 186 182 184 178 191 190 193 190 192 185 174 180 180 181 181 190 175 190 180 162 145 136 125 122 124 126 124 119 116 108 101 101 98 88 92 105 89 88 95 91 71 61 63 52 47 38 4 355 346 347 345 339 330 321 317 297 282 283 292
22 198 188 172 173 169 179 186 194 215 226 200 189 191 187 194 192 195 194 194 186 190 186 191 195 197 191 186 180 184 188 190 199 198 186 183 187 183 189 175 181 191 185 181 156 152 147 135 136 129 131 128 125 124 119 106 105 95 88 90 80 101 88 95 94 91 75 64 52 39 20 17 4 348 352 344 340 336 330 323 318 310 302 293 299
11 64 132 244 194 172 172 183 189 179 178 193 212 214 208 207 202 198 197 191 190 189 195 193 197 195 193 185 188 188 195 193 193 199 204 195 187 186 189 186 194 182 180 152 172 153 153 148 139 138 140 140 141 138 128 116 114 98 84 89 90 120 94 89 110 90 97 119 96 99 52 349 329 334 345 337 335 331 328 333 326 308 295 291 283
29 33 2 157 144 199 182 173 175 174 173 187 183 178 193 211 230 228 220 206 198 198 197 196 197 193 202 195 186 186 193 193 195 200 200 199 191 198 189 194 182 178 175 168 157 162 152 149 145 148 144 132 126 123 121 124 121 111 122 117 123 145 132 143 158 135 191 275 14 101 145 230 277 302 323 321 312 316 316 308 314 311 318 299 293
13 37 55 19 299 174 169 179 179 181 174 163 171 178 189 196 195 199 205 212 207 200 207 205 199 200 201 202 198 194 195 203 201 200 194 186 202 197 191 163 188 189 175 169 153 154 154 150 142 143 140 143 141 131 117 121 104 95 114 104 133 142 130 131 174 166 194 181 182 307 168 281 263 288 280 284 298 304 303 311 311 314 310 301 298
26 24 21 22 32 348 218 195 184 172 163 166 172 176 177 176 189 209 219 217 202 199 204 203 207 209 207 204 198 198 202 205 207 198 181 194 200 196 195 197 170 169 161 152 152 154 151 149 142 147 151 154 139 129 125 108 106 103 101 93 98 105 97 37 235 225 242 163 177 240 236 240 251 249 268 287 295 297 297 307 318 326 323 309 300
28 36 38 34 24 16 355 226 195 177 162 167 167 170 180 179 182 194 199 207 211 208 200 205 206 203 211 212 217 206 202 201 202 191 193 203 205 194 194 183 188 170 172 160 158 157 155 150 155 150 156 142 127 111 109 118 106 108 125 117 137 109 101 329 326 339 329 330 301 277 261 251 250 236 247 260 266 272 269 279 303 322 314 308 311
32 26 33 39 38 31 24 9 14 47 171 169 172 180 188 179 186 186 190 199 206 209 200 216 207 236 225 213 210 207 211 208 204 199 204 210 203 196 194 192 156 179 163 160 160 160 157 155 154 164 145 135 116 104 112 113 104 115 123 130 127 129 132 145 206 316 318 315 308 301 296 285 272 256 245 244 249 246 253 245 244 276 289 300 303
27 32 40 30 28 40 42 37 24 33 41 72 250 185 175 191 193 192 195 198 201 204 206 196 175 198 218 234 231 221 215 209 208 205 210 211 204 199 187 158 182 181 169 164 161 156 151 149 147 136 112 109 114 118 129 110 108 100 96 120 113 119 122 145 156 243 277 262 263 279 288 286 284 271 270 262 236 244 241 241 244 255 275 280 273
7 13 24 47 54 46 57 55 48 41 24 9 25 115 221 241 227 209 202 210 207 209 196 188 208 218 209 206 208 218 218 213 213 214 215 211 203 189 173 179 179 168 177 164 157 150 148 143 129 121 117 119 130 124 127 113 120 122 115 106 123 130 144 172 187 241 256 258 268 259 267 269 272 266 262 252 250 250 242 240 249 232 264 267 267
6 19 26 24 36 35 32 30 39 38 36 35 36 32 12 346 292 265 238 234 222 203 188 194 206 220 226 249 232 219 212 218 217 216 213 208 193 187 175 176 170 156 163 158 147 145 138 134 122 115 124 135 132 125 116 125 138 141 141 159 157 139 157 183 210 241 261 261 262 268 264 268 269 261 254 245 242 240 242 245 261 266 240 247 246
14 17 15 24 26 23 18 20 24 17 21 28 28 26 25 11 1 308 274 266 245 214 197 205 210 219 206 209 227 224 223 222 224 222 216 203 194 182 174 171 157 159 157 143 136 137 131 129 137 146 145 148 152 138 131 137 144 143 147 158 170 175 177 212 230 243 256 259 262 255 263 263 267 273 270 258 241 231 229 254 284 287 278 267 255
12 11 21 22 4 9 20 20 22 24 17 12 18 25 20 17 13 350 318 289 253 210 208 209 211 210 211 215 230 221 220 227 237 263 234 210 197 188 180 171 163 158 153 153 150 153 146 145 143 151 153 153 140 140 142 146 127 127 127 145 139 210 275 261 265 260 255 252 252 255 257 251 251 259 272 275 271 260 248 262 274 277 280 284 280
15 16 353 351 18 16 11 18 17 21 23 21 16 10 12 10 1 360 357 338 297 243 211 202 204 208 209 215 224 229 226 220 201 222 217 206 198 194 184 173 164 153 152 151 152 147 149 144 150 142 151 150 143 125 114 122 119 109 116 91 15 321 296 293 279 276 273 266 262 262 259 257 256 253 261 268 273 274 275 276 273 270 274 276 276
5 16 19 19 1 359 4 360 8 8 5 15 14 15 13 7 352 350 350 351 348 324 265 242 222 218 215 213 213 211 210 216 214 213 206 206 228 313 260 167 155 153 155 154 154 153 152 144 150 152 142 129 127 128 129 115 111 112 85 17 309 291 289 291 289 285 286 281 277 275 271 265 260 254 253 260 257 267 264 275 276 286 286 281 273
15 357 352 350 351 335 345 345 341 351 359 354 355 352 357 352 349 349 347 344 338 338 316 268 242 232 229 222 215 208 209 218 214 183 165 140 107 99 82 354 259 172 159 151 145 141 137 130 130 131 131 135 139 152 158 160 146 142 149 218 278 290 290 289 289 280 275 272 270 268 270 267 267 271 270 270 270 269 269 268 257 251 260 267 274
350 338 330 323 321 316 311 317 334 348 345 345 344 342 341 341 334 335 335 327 347 332 324 309 273 251 242 227 213 204 204 209 197 163 137 122 119 136 167 182 189 173 156 143 137 141 142 146 141 136 137 143 147 158 167 161 162 162 178 191 219 247 258 267 274 281 273 266 262 260 261 264 268 271 273 274 274 272 266 260 261 242 248 254 258
314 320 323 317 319 325 327 335 330 332 329 326 322 320 321 322 320 322 320 317 333 320 316 305 295 280 264 247 227 217 203 198 165 146 153 158 168 175 176 166 152 161 166 154 143 143 146 147 145 148 153 155 160 169 167 169 175 182 176 194 206 241 248 255 259 264 271 269 267 259 257 263 266 270 270 268 267 265 262 262 260 256 251 245 255
309 307 315 331 334 338 339 328 320 311 307 311 312 312 320 312 311 309 303 308 313 310 307 298 287 291 285 262 241 221 193 177 168 178 179 175 172 171 166 162 159 161 176 162 152 152 148 144 143 150 157 165 169 180 175 186 198 206 201 199 210 238 257 262 260 263 261 264 268 268 262 260 261 261 263 264 262 259 258 258 256 254 254 251 245
309 319 322 314 313 314 312 317 317 310 307 292 279 294 296 292 301 297 304 307 298 289 290 292 290 283 277 273 260 224 197 183 190 187 182 176 176 171 166 169 175 162 152 159 155 144 146 146 149 156 164 172 169 187 188 199 209 217 246 249 245 258 267 265 267 264 264 266 266 268 269 257 256 258 264 266 267 267 261 259 257 256 254 249 249
309 306 302 299 298 301 301 298 293 288 278 274 272 273 275 274 276 285 289 287 286 285 279 282 287 281 272 266 257 236 212 197 193 190 187 187 181 180 179 173 157 149 151 147 147 143 143 148 155 157 160 171 182 195 200 207 214 268 283 299 281 281 274 267 268 267 267 269 268 271 274 271 261 261 261 265 265 265 265 264 262 256 255 253 250
302 311 310 305 299 298 303 305 303 300 304 310 299 276 275 278 276 282 270 270 266 266 270 271 278 283 279 264 253 236 224 200 194 194 191 194 191 180 176 168 161 156 150 149 150 149 156 155 154 151 154 170 201 193 128 99 288 288 298 313 294 290 279 273 267 266 266 269 273 271 270 271 272 267 259 261 266 264 268 266 263 259 254 251 248
279 281 285 286 287 284 287 287 288 300 300 294 291 295 296 288 274 270 276 263 264 262 263 262 262 265 268 264 251 242 225 203 194 195 194 193 190 184 178 164 152 143 139 135 134 140 145 151 155 148 146 173 187 97 158 196 283 295 314 314 307 293 288 279 277 273 275 272 271 268 271 276 278 276 270 268 269 274 274 273 270 267 263 257 255
272 268 272 272 275 275 273 278 292 296 300 297 295 296 291 294 298 287 277 270 263 265 261 253 251 250 251 251 244 236 225 207 195 191 196 194 182 171 166 163 144 142 139 141 147 153 155 151 152 152 153 170 196 196 181 223 285 306 324 314 305 296 284 284 281 284 280 277 273 270 271 279 277 277 274 268 267 267 273 270 270 270 266 263 259
272 283 277 277 277 279 279 276 288 291 286 288 290 293 294 296 296 293 289 283 266 263 254 246 246 246 246 248 240 226 215 202 192 194 192 187 176 164 158 162 146 143 140 148 149 143 149 151 151 157 158 157 199 223 206 250 286 307 308 301 292 292 294 289 290 281 277 269 268 274 281 283 281 280 279 274 274 275 278 273 271 272 274 273 272
261 260 273 275 270 265 275 290 289 288 285 285 288 290 291 288 287 285 280 281 276 265 258 251 248 244 245 245 241 222 207 196 188 175 150 136 117 159 165 160 149 143 143 143 141 141 140 134 136 144 155 145 180 212 220 250 269 283 292 286 296 296 301 298 294 295 289 287 279 273 273 275 279 282 283 285 286 285 282 280 279 278 275 274 274
252 254 246 256 266 282 283 280 278 276 280 283 284 282 279 279 277 273 272 269 269 267 264 260 257 249 244 241 232 217 201 183 166 149 144 137 129 114 100 79 73 98 128 140 139 136 141 139 134 137 150 157 172 225 227 238 257 275 287 302 303 311 297 296 292 291 292 282 276 273 269 264 265 268 269 269 266 263 266 274 276 272 273 273 280
271 268 269 262 257 252 264 271 277 280 283 282 281 282 277 273 270 268 264 264 264 266 265 264 261 252 241 230 209 184 158 146 142 133 116 112 130 136 130 121 106 75 80 82 112 118 124 137 146 143 148 184 193 206 239 240 268 280 287 296 281 269 277 276 289 291 285 284 281 274 273 270 268 267 265 265 263 261 259 260 263 267 267 274 279
250 265 275 270 266 264 264 268 265 270 273 276 276 273 272 269 269 264 262 263 263 263 263 264 261 246 220 187 164 149 141 133 129 126 124 118 99 81 92 108 111 115 107 86 52 136 133 136 142 178 201 204 218 216 246 270 266 267 270 279 278 264 283 294 298 287 283 280 280 286 286 281 278 278 277 274 272 269 265 263 264 262 265 265 267
298 294 269 255 272 271 270 268 272 270 271 270 270 269 267 266 261 262 261 261 264 266 264 262 248 211 184 168 155 142 135 133 132 129 119 106 103 108 104 100 102 95 111 127 172 173 141 138 167 238 243 254 252 249 246 261 270 275 283 291 290 294 296 294 295 292 289 291 290 289 288 288 285 281 279 277 275 273 272 271 269 268 268 268 267
277 262 272 270 266 264 271 277 277 275 273 272 265 265 264 264 264 263 267 273 272 266 261 246 211 180 163 152 142 134 130 127 124 117 114 120 119 116 113 124 131 137 137 133 152 140 117 146 213 295 288 268 261 267 276 264 273 280 285 285 287 289 295 299 294 287 293 294 296 296 294 291 286 283 280 278 276 272 270 268 266 264 262 261 260
286 286 283 270 261 273 280 282 277 277 277 274 263 260 266 267 270 284 271 266 263 259 239 205 177 162 143 138 136 134 131 126 125 124 120 114 112 121 123 154 139 138 129 129 168 178 166 182 203 264 289 300 297 288 283 277 276 281 284 286 289 297 302 304 301 299 301 300 294 289 287 285 284 282 279 278 277 272 267 264 263 262 261 259 255
275 275 269 262 269 274 280 284 287 281 280 275 268 260 266 272 277 263 255 251 249 235 202 170 149 135 133 133 124 111 107 117 122 124 126 135 141 144 134 130 109 109 126 141 165 174 170 172 225 258 269 279 298 298 290 287 284 285 290 297 304 311 314 313 303 297 293 288 286 285 284 283 282 281 284 284 282 278 273 269 266 263 258 253 249
279 273 275 278 274 282 282 283 286 290 288 288 282 275 265 278 278 268 255 237 221 186 151 135 128 127 127 124 119 120 114 103 98 95 102 119 119 113 113 115 115 124 124 135 147 162 167 187 262 282 288 300 298 302 300 301 300 311 313 311 321 322 317 309 304 303 297 296 291 292 291 287 284 284 281 278 277 278 275 271 266 260 255 251 247
263 271 272 270 271 270 276 278 282 288 294 299 301 303 315 322 316 310 271 107 109 123 119 114 112 111 116 120 119 117 116 113 110 110 108 89 77 107 119 132 141 146 137 150 160 167 189 213 239 263 281 302 303 304 301 303 317 326 325 323 320 317 313 303 303 301 300 301 303 298 293 289 290 285 282 276 274 268 266 267 265 262 256 250 246
275 270 260 261 266 269 268 272 277 285 296 242 328 18 19 15 1 351 83 101 105 106 104 99 100 106 105 103 111 114 116 114 105 88 75 109 135 135 121 147 202 163 151 154 170 183 201 203 195 213 230 280 294 304 298 319 323 320 316 316 317 314 312 305 301 304 308 306 297 295 295 298 294 291 292 287 281 277 272 266 265 264 259 254 248
260 260 262 264 263 262 266 269 275 276 186 171 89 58 37 30 44 48 71 87 91 91 92 97 93 91 93 100 109 116 120 118 119 118 109 70 26 81 140 144 185 225 212 176 150 176 193 174 183 220 190 218 283 290 307 319 315 313 314 313 312 311 312 313 315 316 314 310 309 307 306 304 302 300 298 296 292 290 288 285 277 271 268 262 254
259 261 264 259 262 263 262 263 257 197 174 143 98 70 50 60 63 60 64 75 83 90 93 93 99 108 125 132 126 117 116 115 115 117 115 117 106 68 42 60 122 167 184 207 224 208 164 167 172 248 54 208 265 288 298 302 312 319 320 320 322 324 323 322 320 321 318 314 311 309 308 303 300 297 296 298 296 296 293 290 288 284 276 271 265